Lakeview AWS, OR

11:52 PM PDT on October 17, 2017 (GMT -0700)
Lake County

Weather History for KLKV - September, 2013

Change the Weather History Date:

Monday, September 2, 2013

  Actual Average Record
Temperature  
Mean Temperature 67 °F -  
Max Temperature 77 °F 80 °F 99 °F (1950)
Min Temperature 57 °F 46 °F 30 °F (1944)
Cooling Degree Days 2    
Growing Degree Days 17 (Base 50)    
Moisture  
Dew Point 51 °F    
Average Humidity 59    
Maximum Humidity 88    
Minimum Humidity 35    
Precipitation  
Precipitation 0.00 in - - ()
Sea Level Pressure  
Sea Level Pressure 30.04 in    
Wind  
Wind Speed 11 mph (SSE)    
Max Wind Speed 24 mph    
Max Gust Speed 33 mph    
Visibility 10 miles    
Events      
Averages and records for this station are not official NWS values.
T = Trace of Precipitation, MM = Missing Value Source: NWS Daily Summary

Daily Weather History Graph

Daily Weather History Graph

Search for Another Location

Airport or City:

Trip Planner

Search our weather history database for the weather conditions in past years. The results will help you decide how hot, cold, wet, or windy it might be!

Date:

Astronomy

Sep. 02, 2013 Rise Set
Actual Time 6:28 AM PDT 7:33 PM PDT
Civil Twilight 5:59 AM PDT 8:01 PM PDT
Nautical Twilight 5:25 AM PDT 8:35 PM PDT
Astronomical Twilight 4:49 AM PDT 9:11 PM PDT
Moon 3:48 AM PDT (9/2) 5:50 PM PDT (9/2)
Length of Visible Light 14h 02m
Length of Day
13h 04m
Waning Crescent, 7% of the Moon is Illuminated
Sep 2
Waning Crescent
Sep 5
New
Sep 12
First Quarter
Sep 19
Full
Sep 26
Last Quarter

Hourly Weather History & Observations

Time (PDT) Temp. Dew Point Humidity Pressure Visibility Wind Dir Wind Speed Gust Speed Precip Events Conditions
12:15 AM 62.6 °F 53.6 °F 72% 30.06 in 10.0 mi South 9.2 mph - N/A   Mostly Cloudy
12:35 AM 62.6 °F 53.6 °F 72% 30.06 in 10.0 mi South 11.5 mph - N/A   Overcast
12:55 AM 62.6 °F 53.6 °F 72% 30.06 in 10.0 mi South 10.4 mph - N/A   Overcast
1:15 AM 62.6 °F 53.6 °F 72% 30.06 in 10.0 mi SSE 6.9 mph - N/A   Overcast
1:35 AM 62.6 °F 53.6 °F 72% 30.06 in 10.0 mi South 8.1 mph - N/A   Overcast
1:55 AM 60.8 °F 53.6 °F 77% 30.06 in 10.0 mi SSE 8.1 mph - N/A   Overcast
2:15 AM 59.0 °F 53.6 °F 82% 30.05 in 10.0 mi SSE 6.9 mph - N/A   Mostly Cloudy
2:35 AM 60.8 °F 53.6 °F 77% 30.05 in 10.0 mi South 6.9 mph - N/A   Mostly Cloudy
2:55 AM 62.6 °F 53.6 °F 72% 30.05 in 10.0 mi South 6.9 mph - N/A   Overcast
3:15 AM 62.6 °F 53.6 °F 72% 30.04 in 10.0 mi South 9.2 mph - N/A   Overcast
3:35 AM 62.6 °F 53.6 °F 72% 30.04 in 10.0 mi South 9.2 mph - N/A   Overcast
3:55 AM 62.6 °F 53.6 °F 72% 30.03 in 10.0 mi South 8.1 mph - N/A   Overcast
4:15 AM 62.6 °F 53.6 °F 72% 30.04 in 10.0 mi South 5.8 mph - N/A   Overcast
4:35 AM 62.6 °F 53.6 °F 72% 30.04 in 10.0 mi SSE 4.6 mph - N/A   Overcast
4:55 AM 60.8 °F 53.6 °F 77% 30.04 in 10.0 mi SE 6.9 mph - N/A   Overcast
5:15 AM 60.8 °F 53.6 °F 77% 30.03 in 10.0 mi SSE 9.2 mph - N/A   Overcast
5:35 AM 60.8 °F 53.6 °F 77% 30.03 in 10.0 mi SSE 8.1 mph - N/A   Overcast
5:55 AM 59.0 °F 55.4 °F 88% 30.04 in 10.0 mi SSE 10.4 mph - N/A   Overcast
6:15 AM 60.8 °F 55.4 °F 82% 30.04 in 10.0 mi SSE 9.2 mph - N/A   Overcast
6:35 AM 60.8 °F 55.4 °F 82% 30.05 in 10.0 mi SSE 9.2 mph - N/A   Overcast
6:55 AM 60.8 °F 55.4 °F 82% 30.05 in 10.0 mi SE 6.9 mph - N/A   Overcast
7:15 AM 60.8 °F 55.4 °F 82% 30.05 in 10.0 mi SSE 8.1 mph - N/A   Overcast
7:35 AM 60.8 °F 55.4 °F 82% 30.06 in 10.0 mi SSE 6.9 mph - N/A   Overcast
7:55 AM 60.8 °F 55.4 °F 82% 30.07 in 10.0 mi ESE 9.2 mph - N/A   Overcast
8:15 AM 60.8 °F 55.4 °F 82% 30.06 in 10.0 mi SE 8.1 mph - N/A   Overcast
8:35 AM 62.6 °F 55.4 °F 77% 30.07 in 10.0 mi SSE 6.9 mph - N/A   Overcast
8:55 AM 62.6 °F 55.4 °F 77% 30.07 in 10.0 mi ESE 6.9 mph - N/A   Overcast
9:15 AM 62.6 °F 55.4 °F 77% 30.07 in 10.0 mi East 4.6 mph - N/A   Overcast
9:35 AM 64.4 °F 57.2 °F 77% 30.07 in 10.0 mi South 4.6 mph - N/A   Overcast
9:55 AM 64.4 °F 55.4 °F 73% 30.07 in 10.0 mi South 11.5 mph - N/A   Overcast
10:15 AM 66.2 °F 55.4 °F 68% 30.07 in 10.0 mi SSE 15.0 mph 21.9 mph N/A   Overcast
10:35 AM 68.0 °F 55.4 °F 64% 30.06 in 10.0 mi South 10.4 mph - N/A   Overcast
10:55 AM 69.8 °F 53.6 °F 56% 30.06 in 10.0 mi South 12.7 mph - N/A   Overcast
11:15 AM 69.8 °F 53.6 °F 56% 30.06 in 10.0 mi South 13.8 mph 19.6 mph N/A   Overcast
11:35 AM 73.4 °F 55.4 °F 53% 30.06 in 10.0 mi South 9.2 mph 19.6 mph N/A   Mostly Cloudy
11:55 AM 73.4 °F 55.4 °F 53% 30.06 in 10.0 mi SSE 17.3 mph 24.2 mph N/A   Overcast
12:15 PM 73.4 °F 53.6 °F 50% 30.05 in 10.0 mi South 17.3 mph 24.2 mph N/A   Mostly Cloudy
12:35 PM 73.4 °F 53.6 °F 50% 30.05 in 10.0 mi South 17.3 mph 24.2 mph N/A   Mostly Cloudy
12:55 PM 73.4 °F 53.6 °F 50% 30.04 in 10.0 mi South 16.1 mph 23.0 mph N/A   Scattered Clouds
1:15 PM 73.4 °F 53.6 °F 50% 30.04 in 10.0 mi South 17.3 mph 25.3 mph N/A   Partly Cloudy
1:35 PM 77.0 °F 53.6 °F 44% 30.04 in 10.0 mi South 16.1 mph 25.3 mph N/A   Partly Cloudy
1:55 PM 75.2 °F 51.8 °F 44% 30.03 in 9.0 mi South 19.6 mph 26.5 mph N/A   Partly Cloudy
2:15 PM 75.2 °F 51.8 °F 44% 30.03 in 10.0 mi South 18.4 mph 25.3 mph N/A   Clear
2:35 PM 75.2 °F 51.8 °F 44% 30.03 in 10.0 mi South 20.7 mph 32.2 mph N/A   Partly Cloudy
2:55 PM 75.2 °F 51.8 °F 44% 30.02 in 10.0 mi South 19.6 mph 26.5 mph N/A   Partly Cloudy
3:15 PM 77.0 °F 51.8 °F 41% 30.03 in 10.0 mi South 19.6 mph 26.5 mph N/A   Clear
3:35 PM 75.2 °F 51.8 °F 44% 30.02 in 10.0 mi SSE 21.9 mph 26.5 mph N/A   Clear
3:55 PM 73.4 °F 51.8 °F 47% 30.02 in 10.0 mi SSE 20.7 mph 33.4 mph N/A   Partly Cloudy
4:15 PM 75.2 °F 51.8 °F 44% 30.03 in 10.0 mi SSE 24.2 mph 32.2 mph N/A   Clear
4:35 PM 73.4 °F 51.8 °F 47% 30.02 in 10.0 mi SSE 23.0 mph - N/A   Partly Cloudy
4:55 PM 73.4 °F 50.0 °F 44% 30.01 in 10.0 mi South 17.3 mph 28.8 mph N/A   Clear
5:15 PM 73.4 °F 51.8 °F 47% 30.02 in 10.0 mi SE 18.4 mph 24.2 mph N/A   Clear
5:35 PM 73.4 °F 48.2 °F 41% 30.01 in 10.0 mi SSE 18.4 mph 21.9 mph N/A   Clear
5:55 PM 71.6 °F 48.2 °F 43% 30.01 in 10.0 mi SE 15.0 mph 21.9 mph N/A   Clear
6:15 PM 73.4 °F 46.4 °F 38% 30.01 in 10.0 mi South 17.3 mph 23.0 mph N/A   Clear
6:35 PM 71.6 °F 42.8 °F 35% 30.00 in 10.0 mi South 16.1 mph 20.7 mph N/A   Clear
6:55 PM 71.6 °F 42.8 °F 35% 30.00 in 10.0 mi South 16.1 mph 21.9 mph N/A   Clear
7:15 PM 69.8 °F 42.8 °F 38% 30.01 in 10.0 mi South 10.4 mph - N/A   Clear
7:35 PM 69.8 °F 44.6 °F 40% 30.01 in 10.0 mi South 15.0 mph - N/A   Clear
7:55 PM 68.0 °F 42.8 °F 40% 30.01 in 10.0 mi South 13.8 mph - N/A   Clear
8:15 PM 66.2 °F 44.6 °F 46% 30.02 in 10.0 mi SSE 11.5 mph - N/A   Clear
8:35 PM 64.4 °F 44.6 °F 49% 30.03 in 10.0 mi SSE 11.5 mph - N/A   Clear
8:55 PM 62.6 °F 44.6 °F 52% 30.04 in 10.0 mi SSE 10.4 mph - N/A   Clear
9:15 PM 62.6 °F 44.6 °F 52% 30.04 in 10.0 mi SSE 10.4 mph - N/A   Clear
9:35 PM 62.6 °F 42.8 °F 48% 30.05 in 10.0 mi South 8.1 mph - N/A   Clear
9:55 PM 62.6 °F 41.0 °F 45% 30.05 in 10.0 mi South 11.5 mph - N/A   Clear
10:15 PM 62.6 °F 37.4 °F 39% 30.05 in 10.0 mi South 11.5 mph - N/A   Clear
10:35 PM 60.8 °F 37.4 °F 42% 30.06 in 10.0 mi South 10.4 mph - N/A   Clear
10:55 PM 60.8 °F 37.4 °F 42% 30.06 in 10.0 mi SSE 10.4 mph - N/A   Clear
11:15 PM 57.2 °F 37.4 °F 48% 30.06 in 10.0 mi SE 10.4 mph - N/A   Clear
11:35 PM 59.0 °F 37.4 °F 45% 30.06 in 10.0 mi SSE 9.2 mph - N/A   Clear
11:55 PM 57.2 °F 37.4 °F 48% 30.06 in 10.0 mi SE 8.1 mph - N/A   Clear